Tampa, FL

6:26 PM EST on February 09, 2016 (GMT -0500)
MacDill Air Force Base

Weather History for KMCF - February, 2014

Change the Weather History Date:

Saturday, February 15, 2014

  Actual Average Record
Temperature  
Mean Temperature 58 °F -  
Max Temperature 66 °F 71 °F 82 °F (2001)
Min Temperature 47 °F 52 °F 39 °F (2006)
Degree Days  
Heating Degree Days 7    
Growing Degree Days 8 (Base 50)    
Moisture  
Dew Point 51 °F    
Average Humidity 75    
Maximum Humidity 100    
Minimum Humidity 41    
Precipitation  
Precipitation 0.00 in - - ()
Sea Level Pressure  
Sea Level Pressure 30.06 in    
Wind  
Wind Speed 10 mph (WNW)    
Max Wind Speed 16 mph    
Max Gust Speed 25 mph    
Visibility 10 miles    
Events Rain    
Averages and records for this station are not official NWS values.
T = Trace of Precipitation, MM = Missing Value Source: NWS Daily Summary

Daily Weather History Graph

Daily Weather History Graph

Search for Another Location

Airport or City:

Trip Planner

Search our weather history database for the weather conditions in past years. The results will help you decide how hot, cold, wet, or windy it might be!

Date:

Astronomy

Feb. 15, 2014 Rise Set
Actual Time 7:07 AM EST 6:21 PM EST
Civil Twilight 6:43 AM EST 6:45 PM EST
Nautical Twilight 6:16 AM EST 7:12 PM EST
Astronomical Twilight 5:48 AM EST 7:40 PM EST
Moon 7:10 PM EST (2/15) 7:12 AM EST (2/15)
Length of Visible Light 12h 01m
Length of Day
11h 13m
Full, 100% of the Moon is Illuminated
Feb 15
Full
Feb 22
Last Quarter
Mar 1
New
Mar 8
First Quarter
Mar 16
Full

Hourly Weather History & Observations

Time (EST) Temp. Dew Point Humidity Pressure Visibility Wind Dir Wind Speed Gust Speed Precip Events Conditions
12:58 AM 55.6 °F 54.3 °F 96% 29.96 in 10.0 mi South 8.1 mph - N/A   Clear
1:58 AM 55.9 °F 55.6 °F 99% 29.96 in 10.0 mi South 6.9 mph - N/A   Clear
2:58 AM 59.2 °F 59.0 °F 99% 29.97 in 10.0 mi WSW 4.6 mph - N/A   Overcast
3:58 AM 60.1 °F 58.1 °F 93% 29.97 in 10.0 mi SW 9.2 mph - N/A   Scattered Clouds
4:58 AM 60.8 °F 59.9 °F 97% 29.96 in 10.0 mi SW 13.8 mph - N/A   Scattered Clouds
5:21 AM 62.6 °F 60.8 °F 94% 29.96 in 10.0 mi SW 10.4 mph - N/A   Light Drizzle
5:37 AM 60.8 °F 60.8 °F 100% 29.96 in 9.0 mi SW 10.4 mph - N/A   Overcast
5:58 AM 61.5 °F 60.8 °F 97% 29.97 in 10.0 mi SW 13.8 mph - 0.00 in   Overcast
6:58 AM 62.4 °F 61.0 °F 95% 29.99 in 10.0 mi WSW 11.5 mph - N/A   Scattered Clouds
7:58 AM 63.3 °F 62.2 °F 96% 30.00 in 10.0 mi WSW 10.4 mph - N/A   Clear
8:36 AM 66.2 °F 55.4 °F 68% 30.02 in 10.0 mi NW 11.5 mph 24.2 mph N/A Rain Light Rain
8:41 AM 64.4 °F 53.6 °F 68% 30.03 in 10.0 mi NW 16.1 mph 25.3 mph N/A Rain Light Rain
8:42 AM 64.4 °F 51.8 °F 64% 30.03 in 10.0 mi NW 16.1 mph 25.3 mph N/A   Overcast
8:47 AM 62.6 °F 51.8 °F 68% 30.03 in 10.0 mi NW 11.5 mph 25.3 mph N/A   Overcast
8:52 AM 62.6 °F 51.8 °F 68% 30.04 in 10.0 mi NW 12.7 mph 23.0 mph N/A   Overcast
8:58 AM 61.5 °F 51.4 °F 69% 30.05 in 10.0 mi NW 10.4 mph 23.0 mph 0.00 in   Overcast
9:58 AM 60.3 °F 48.9 °F 66% 30.08 in 10.0 mi NNW 8.1 mph - N/A   Overcast
10:58 AM 62.1 °F 45.3 °F 54% 30.10 in 10.0 mi NW 12.7 mph 18.4 mph N/A   Overcast
11:58 AM 64.2 °F 39.7 °F 41% 30.10 in 10.0 mi NW 12.7 mph 19.6 mph N/A   Mostly Cloudy
12:58 PM 64.6 °F 43.7 °F 47% 30.10 in 10.0 mi WNW 12.7 mph - N/A   Partly Cloudy
1:58 PM 63.7 °F 42.3 °F 46% 30.09 in 10.0 mi WNW 13.8 mph 16.1 mph N/A   Clear
2:58 PM 63.7 °F 41.2 °F 44% 30.09 in 10.0 mi West 12.7 mph - N/A   Clear
3:58 PM 62.6 °F 43.5 °F 50% 30.09 in 10.0 mi WNW 10.4 mph - N/A   Clear
4:58 PM 61.3 °F 45.5 °F 56% 30.11 in 10.0 mi NW 9.2 mph - N/A   Clear
5:58 PM 58.1 °F 46.6 °F 65% 30.13 in 10.0 mi WNW 10.4 mph - N/A   Clear
6:58 PM 54.0 °F 46.4 °F 76% 30.14 in 10.0 mi NW 6.9 mph - N/A   Clear
7:58 PM 53.1 °F 46.4 °F 78% 30.15 in 10.0 mi NNW 8.1 mph - N/A   Clear
8:58 PM 52.5 °F 46.9 °F 81% 30.16 in 10.0 mi NNW 10.4 mph - N/A   Clear
9:58 PM 51.8 °F 46.6 °F 82% 30.17 in 10.0 mi NNW 6.9 mph - N/A   Clear
10:58 PM 50.9 °F 46.0 °F 83% 30.18 in 10.0 mi NE 3.5 mph - N/A   Clear
11:58 PM 47.7 °F 45.3 °F 92% 30.17 in 10.0 mi North 4.6 mph - N/A   Clear